[[{"header":{"parameterUnit":"m.s-1","parameterCategory":1,"la1":30.2991,"la2":30.254,"lo1":-89.0895,"lo2":-89.0444,"dx":0.0017,"dy":0.0017,"nx":28,"ny":28,"refTime":"2023-01-07T03:00:00:Z","depth":0,"parameterNumber":2,"parameterNumberName":"U-component_of_WINDS"},"data":[0,0,0,0,0,0,0,0,0,0,0,0,0,0,0,0,0,0,0,0,0,0,0,0,0,0,0,0,0,0,0,0,0,0,0,0,0,0,0,0,0,0,0,0,0,0,0,0,0,0,0,0,0,0,0,0,0,0,-2.1749,-2.1749,0,-2.1762,-2.1762,-2.1762,-2.1712,-2.1711,-2.1709,-2.1708,-2.172,-2.1722,-2.1724,0,0,0,0,0,0,0,0,0,0,0,0,0,-2.1682,-2.1683,-2.1749,-2.1749,-2.1749,-2.1762,-2.1762,-2.1762,-2.1713,-2.1711,-2.1709,-2.1707,-2.172,-2.1722,-2.1724,0,0,0,0,0,0,0,0,0,0,0,0,0,-2.1704,-2.1684,-2.1749,-2.1726,-2.1724,-2.1762,-2.1762,-2.1762,-2.1713,-2.1711,-2.1708,-2.1706,-2.1719,-2.1721,-2.1724,-2.1784,0,0,-2.1732,-2.1733,0,0,0,0,0,0,0,0,-2.1703,-2.1707,-2.1729,-2.1728,-2.1726,-2.1733,-2.1743,-2.1769,-2.1713,-2.1717,-2.1708,-2.1705,-2.1726,-2.1728,-2.1735,-2.1784,-2.1785,-2.1732,-2.1734,-2.1735,-2.1735,0,0,0,0,0,0,0,-2.1702,-2.1706,-2.1754,-2.173,-2.1728,-2.1715,-2.1716,-2.1748,-2.1734,-2.1717,-2.1713,-2.1715,-2.1725,-2.1733,-2.1735,-2.1785,-2.1732,-2.1734,-2.1736,-2.1737,-2.1884,-2.1887,0,0,0,0,0,0,-2.1703,-2.1705,-2.1754,-2.1754,-2.1709,-2.1718,-2.1719,-2.1733,-2.1733,-2.1731,-2.1717,-2.1713,-2.173,-2.1732,-2.1735,-2.1805,-2.1735,-2.1737,-2.1738,-2.1882,-2.1885,-2.1887,0,0,0,0,0,0,-2.1702,-2.1708,-2.1753,-2.1729,-2.1734,-2.1722,-2.1738,-2.1734,-2.1742,-2.1734,-2.1731,-2.1728,-2.1728,-2.1732,-2.1772,-2.1805,-2.1738,-2.174,-2.1879,-2.1883,-2.1886,-2.1945,0,0,0,0,0,0,-2.17,-2.1708,-2.173,-2.173,-2.1735,-2.179,-2.174,-2.1736,-2.1747,-2.1742,-2.1743,-2.1741,-2.1727,-2.1769,-2.1775,-2.1807,-2.1742,-2.1876,-2.1881,-2.1885,-2.194,-2.195,-2.1958,0,0,0,0,0,-2.1698,-2.1746,-2.1732,-2.1738,-2.1763,-2.1792,-2.1795,-2.1777,-2.175,-2.1772,-2.1767,-2.1741,-2.1801,-2.1773,-2.178,-2.1813,-2.1874,-2.1879,-2.1885,-2.1935,-2.1948,-2.1958,0,0,0,0,0,0,-2.175,-2.1745,-2.1729,-2.1779,-2.1786,-2.1783,-2.1811,-2.1791,-2.1805,-2.18,-2.1777,-2.1778,-2.1822,-2.1822,-2.1791,-2.1871,-2.1833,-2.184,-2.1869,-2.1881,-2.189,-2.1888,-2.1745,0,0,0,0,0,-2.1767,-2.1791,-2.1786,-2.183,-2.1835,-2.1823,-2.1834,-2.182,-2.1827,-2.1829,-2.1827,-2.1834,-2.1854,-2.1868,-2.1886,-2.1941,-2.194,-2.1967,-2.1976,-2.1984,-2.1989,-2.2018,-2.2029,-2.1905,-2.1905,-2.1905,0,0,-2.1803,-2.1804,-2.182,-2.1841,-2.1845,-2.187,-2.1825,-2.1853,-2.1872,-2.1834,-2.1871,-2.187,-2.1877,-2.1924,-2.1945,-2.1925,-2.2024,-2.1991,-2.1997,-2.1998,-2.2024,-2.2036,-2.2047,-2.1909,-2.1908,-2.1907,0,0,-2.188,-2.1884,-2.192,-2.1926,-2.1933,-2.1925,-2.1934,-2.1934,-2.1932,-2.197,-2.1942,-2.1964,-2.1999,-2.2005,-2.2012,-2.2094,-2.2071,-2.2101,-2.2149,-2.2177,-2.2187,-2.2195,-2.2223,-2.2234,-2.2107,-2.2107,-2.2108,0,-2.1923,-2.196,-2.1942,-2.1972,-2.1982,-2.195,-2.1987,-2.1993,-2.2006,-2.2013,-2.1992,-2.2036,-2.2038,-2.2086,-2.2106,-2.2114,-2.2123,-2.2099,-2.2187,-2.2195,-2.2203,-2.2229,-2.224,-2.2111,-2.2111,-2.211,-2.211,0,-2.2012,-2.2038,-2.2067,-2.208,-2.2094,-2.2127,-2.2115,-2.2131,-2.2116,-2.2111,-2.215,-2.2152,-2.217,-2.2181,-2.2167,-2.2227,-2.2215,-2.2191,-2.2151,-2.2218,-2.2243,-2.2253,-2.2116,-2.2115,-2.2114,-2.2113,0,0,-2.2119,-2.2124,-2.2135,-2.214,-2.2147,-2.2166,-2.2199,-2.2217,-2.2231,-2.2242,-2.2267,-2.2299,-2.2277,-2.2286,-2.2273,-2.2298,-2.2361,-2.227,-2.227,-2.2286,-2.2427,-2.2444,-2.2456,-2.2347,-2.2349,-2.2351,-2.2426,0,-2.2194,-2.2249,-2.2235,-2.229,-2.2313,-2.2285,-2.2313,-2.232,-2.2317,-2.2336,-2.2332,-2.2354,-2.2324,-2.2329,-2.2353,-2.2349,-2.2389,-2.2343,-2.237,-2.2371,-2.2367,-2.2468,-2.2486,-2.2556,-2.2436,-2.2437,-2.2438,0,-2.2287,-2.2302,-2.2359,-2.2362,-2.2372,-2.2398,-2.2413,-2.2433,-2.244,-2.2436,-2.2447,-2.2429,-2.2461,-2.2424,-2.2468,-2.2437,-2.2448,-2.2448,-2.245,-2.245,-2.2407,-2.2469,-2.2579,-2.2589,-2.2453,-2.2452,-2.2451,0,-2.2358,-2.2392,-2.2431,-2.2437,-2.2442,-2.2461,-2.2464,-2.2469,-2.2481,-2.2496,-2.2503,-2.2521,-2.253,-2.2545,-2.2532,-2.2506,-2.2578,-2.2539,-2.2574,-2.2575,-2.2588,-2.2587,-2.2699,-2.2599,-2.2599,-2.2599,-2.2599,0,-2.2441,-2.2477,-2.2463,-2.2486,-2.2526,-2.251,-2.2549,-2.2549,-2.2555,-2.2578,-2.2555,-2.2577,-2.2561,-2.2581,-2.2573,-2.261,-2.2615,-2.2611,-2.2608,-2.2612,-2.2612,-2.2617,-2.261,-2.2602,-2.2601,-2.2601,-2.26,0,-2.2525,-2.2517,-2.2557,-2.2559,-2.2561,-2.259,-2.2591,-2.2613,-2.2609,-2.2638,-2.2644,-2.2637,-2.2661,-2.2651,-2.2675,-2.2669,-2.2717,-2.2708,-2.2714,-2.271,-2.2745,-2.2741,-2.2862,-2.2877,-2.277,-2.2771,-2.2772,0,-2.2577,-2.2604,-2.261,-2.2624,-2.2628,-2.2651,-2.2664,-2.265,-2.2664,-2.2676,-2.2696,-2.2718,-2.2734,-2.2773,-2.277,-2.2789,-2.2779,-2.282,-2.2781,-2.2785,-2.2777,-2.2775,-2.2777,-2.2827,-2.2828,-2.2829,-2.283,0,-2.267,-2.2666,-2.2684,-2.2703,-2.2718,-2.2732,-2.2743,-2.2756,-2.2743,-2.276,-2.2784,-2.2796,-2.2822,-2.2844,-2.2861,-2.2864,-2.2845,-2.2843,-2.2852,-2.2854,-2.2856,-2.2854,-2.2732,-2.2839,-2.2838,-2.2838,-2.2837,-2.2837,-2.2739,-2.2761,-2.2769,-2.2791,-2.2798,-2.281,-2.283,-2.2829,-2.2849,-2.2869,-2.286,-2.2888,-2.2896,-2.2917,-2.2923,-2.2944,-2.2928,-2.2941,-2.2944,-2.2946,-2.295,-2.2855,-2.2948,-2.2947,-2.2947,-2.2947,-2.2947,0,-2.2829,-2.2833,-2.2854,-2.2871,-2.2888,-2.287,-2.2883,-2.2898,-2.2923,-2.2932,-2.2949,-2.2977,-2.2998,-2.2998,-2.3017,-2.3034,-2.3026,-2.304,-2.3037,-2.3038,-2.2964,-2.2954,-2.3046,-2.3046,-2.3046,-2.3046,-2.3046,-2.3046,-2.2878,-2.2915,-2.2911,-2.2952,-2.2956,-2.2983,-2.2991,-2.3002,-2.3009,-2.3041,-2.3059,-2.3059,-2.3064,-2.3084,-2.3103,-2.3103,-2.311,-2.3127,-2.3123,-2.3053,-2.3043,-2.3034,-2.3024,-2.3129,-2.3129,-2.3194,-2.3194,-2.3195]},{"header":{"parameterUnit":"m.s-1","parameterCategory":1,"la1":30.2991,"la2":30.254,"lo1":-89.0895,"lo2":-89.0444,"dx":0.0017,"dy":0.0017,"nx":28,"ny":28,"refTime":"2023-01-07T03:00:00:Z","depth":0,"parameterNumber":3,"parameterNumberName":"V-component_of_WINDS"},"data":[0,0,0,0,0,0,0,0,0,0,0,0,0,0,0,0,0,0,0,0,0,0,0,0,0,0,0,0,0,0,0,0,0,0,0,0,0,0,0,0,0,0,0,0,0,0,0,0,0,0,0,0,0,0,0,0,0,0,2.0848,2.0849,0,2.0902,2.0903,2.0904,2.1001,2.1003,2.1004,2.1006,2.1058,2.1057,2.1057,0,0,0,0,0,0,0,0,0,0,0,0,0,2.0826,2.0825,2.0848,2.0849,2.0849,2.0902,2.0903,2.0904,2.1,2.1003,2.1005,2.1007,2.1058,2.1057,2.1057,0,0,0,0,0,0,0,0,0,0,0,0,0,2.0853,2.0825,2.0848,2.0904,2.091,2.0902,2.0903,2.0904,2.1,2.1003,2.1005,2.1008,2.1058,2.1057,2.1057,2.0998,0,0,2.1055,2.1055,0,0,0,0,0,0,0,0,2.0851,2.0854,2.0895,2.09,2.0906,2.0948,2.0914,2.0935,2.0999,2.0965,2.1006,2.1009,2.1019,2.1021,2.1025,2.1,2.1003,2.1055,2.1055,2.1055,2.1055,0,0,0,0,0,0,0,2.0849,2.0852,2.087,2.0896,2.0902,2.0926,2.0933,2.0919,2.0976,2.0969,2.0976,2.0981,2.1022,2.1026,2.1027,2.1003,2.1055,2.1055,2.1054,2.1054,2.0936,2.0933,0,0,0,0,0,0,2.084,2.085,2.0868,2.0871,2.0885,2.0924,2.0932,2.0932,2.0976,2.0986,2.0979,2.0985,2.1025,2.1028,2.103,2.0966,2.1055,2.1054,2.1054,2.0938,2.0935,2.0932,0,0,0,0,0,0,2.0839,2.084,2.0866,2.0862,2.0867,2.0921,2.092,2.0931,2.0935,2.0984,2.0994,2.0972,2.1028,2.103,2.1006,2.0969,2.1054,2.1053,2.0942,2.0937,2.0933,2.0836,0,0,0,0,0,0,2.0838,2.0839,2.0818,2.0861,2.0867,2.0841,2.0918,2.093,2.0934,2.0944,2.098,2.0989,2.103,2.1006,2.1006,2.097,2.1053,2.0945,2.094,2.0935,2.0843,2.0829,2.0817,0,0,0,0,0,2.0836,2.0787,2.0816,2.0818,2.0842,2.0839,2.0843,2.0892,2.0931,2.091,2.0941,2.0988,2.0973,2.1003,2.1003,2.0966,2.0948,2.0941,2.0935,2.0849,2.0832,2.0818,0,0,0,0,0,0,2.0736,2.0793,2.0827,2.079,2.0809,2.0856,2.083,2.0872,2.088,2.0888,2.0948,2.0955,2.0923,2.0942,2.0975,2.0913,2.0968,2.0961,2.0902,2.0886,2.0874,2.0871,2.1053,0,0,0,0,0,2.0709,2.0703,2.0754,2.0716,2.0725,2.0775,2.0776,2.0813,2.0835,2.0843,2.0873,2.0891,2.0891,2.089,2.0892,2.0846,2.0856,2.0821,2.0808,2.0797,2.0791,2.0771,2.0756,2.0911,2.0911,2.0911,0,0,2.0654,2.0685,2.0678,2.0697,2.0716,2.0709,2.0782,2.077,2.0765,2.0841,2.0821,2.0843,2.0868,2.0833,2.0819,2.0848,2.075,2.0789,2.078,2.078,2.0762,2.0748,2.0735,2.0907,2.0907,2.0908,0,0,2.0551,2.0573,2.0546,2.0564,2.0594,2.0628,2.0621,2.0662,2.0681,2.0662,2.072,2.0714,2.0711,2.0728,2.0735,2.064,2.0684,2.0639,2.0573,2.0552,2.054,2.0529,2.0497,2.0485,2.0633,2.0632,2.0632,0,2.0479,2.0471,2.0526,2.0512,2.0519,2.0589,2.0563,2.0577,2.0604,2.0608,2.064,2.0641,2.0662,2.0633,2.061,2.0613,2.0608,2.0636,2.0537,2.0527,2.0518,2.0489,2.0476,2.0627,2.0628,2.0628,2.0629,0,2.0382,2.0376,2.035,2.0377,2.0382,2.036,2.0412,2.041,2.0446,2.0477,2.0458,2.0486,2.0497,2.0493,2.0527,2.0469,2.0487,2.0526,2.0583,2.0497,2.047,2.0459,2.0619,2.0621,2.0623,2.0624,0,0,2.0216,2.0277,2.0266,2.0281,2.0319,2.0315,2.0297,2.0309,2.0307,2.0323,2.0311,2.0309,2.0347,2.0356,2.0393,2.0374,2.03,2.0417,2.0419,2.0396,2.0241,2.0212,2.0197,2.0329,2.0327,2.0325,2.0239,0,2.0123,2.0098,2.0148,2.0111,2.0107,2.0174,2.016,2.0181,2.021,2.021,2.0241,2.024,2.0289,2.0295,2.028,2.0312,2.027,2.0319,2.0318,2.0318,2.0312,2.0183,2.0152,2.0069,2.0229,2.0227,2.0226,0,2.001,2.0024,1.9988,2.0031,2.0031,2.0016,2.0033,2.0032,2.0058,2.008,2.0091,2.0135,2.0121,2.0175,2.0157,2.0189,2.0192,2.0207,2.0205,2.0209,2.0268,2.0184,2.0044,2.0032,2.021,2.0211,2.0212,0,1.9896,1.9905,1.9886,1.9895,1.9944,1.9933,1.9952,1.9981,1.9986,2.0,2.0004,2.0015,2.0021,2.0028,2.0074,2.0109,2.0052,2.0108,2.007,2.0069,2.0056,2.0057,1.9916,2.0054,2.0055,2.0055,2.0055,0,1.9788,1.9763,1.9836,1.9823,1.9798,1.9855,1.9829,1.9855,1.988,1.9874,1.9932,1.9925,1.9985,1.9985,2.002,2.0001,2.0003,2.0021,2.0031,2.0017,2.0015,2.002,2.0028,2.0052,2.0052,2.0053,2.0053,0,1.9656,1.9704,1.9687,1.9735,1.9747,1.9726,1.9767,1.9758,1.9791,1.9783,1.9784,1.9835,1.9838,1.9885,1.9896,1.9921,1.9888,1.9907,1.988,1.9887,1.9847,1.9851,1.9706,1.9691,1.9837,1.9835,1.9834,0,1.9585,1.9568,1.9615,1.9617,1.9634,1.9634,1.9641,1.9696,1.97,1.973,1.9717,1.9725,1.9734,1.9735,1.9773,1.9783,1.9804,1.9753,1.9806,1.9793,1.9806,1.9808,1.9807,1.9742,1.974,1.9739,1.9738,0,1.9454,1.9479,1.9486,1.9502,1.9508,1.9523,1.9541,1.9538,1.96,1.9601,1.9606,1.9613,1.9627,1.9634,1.9651,1.967,1.9714,1.9721,1.9713,1.9699,1.9685,1.9694,1.9851,1.9724,1.9725,1.9726,1.9727,1.9728,1.9352,1.9341,1.9374,1.938,1.9401,1.9417,1.9411,1.9445,1.945,1.9467,1.9499,1.9499,1.9527,1.9555,1.9571,1.9571,1.9597,1.9585,1.9583,1.9579,1.9573,1.9683,1.9574,1.9575,1.9575,1.9575,1.9576,0,1.9226,1.9251,1.9256,1.9282,1.9287,1.9329,1.9352,1.9354,1.9354,1.9377,1.9386,1.9392,1.9399,1.9438,1.9451,1.9444,1.9464,1.9445,1.9447,1.9451,1.9547,1.9554,1.9429,1.9429,1.9429,1.9429,1.9429,1.9429,1.9161,1.9146,1.9175,1.9171,1.9195,1.9198,1.9207,1.9223,1.9242,1.9247,1.9254,1.928,1.931,1.9325,1.9335,1.9346,1.9349,1.9323,1.9341,1.943,1.9444,1.9458,1.9465,1.9323,1.9322,1.9246,1.9245,1.9244]}]]